Probability
0 0 0 0 0 0 0 0 0 0 0 1 1 1 2 2 3 5 4 2 2 3 3 2 1 0 0 0 0 0 1 0 0 0 0 0 1 0 0 0 0 0 0
0 0 0 0 0 0 0 0 0 0 0 0 1 2 2 2 3 4 3 2 1 1 1 1 0 0 0 0 0 1 1 1 0 0 0 1 1 1 0 0 0 0 0
0 0 0 0 0 0 0 0 0 0 0 0 0 1 2 1 1 2 2 1 0 0 0 0 0 1 1 1 1 2 2 2 1 0 1 2 2 1 0 0 0 0 0
0 0 0 0 0 0 0 0 0 0 0 0 0 0 0 0 0 1 1 1 0 0 0 0 1 2 3 4 3 3 3 3 2 1 2 3 2 1 0 0 0 0 0
0 0 0 0 0 0 0 0 0 0 0 0 0 0 0 0 0 0 0 0 0 0 1 0 1 2 5 5 4 2 2 3 3 2 1 2 2 1 0 0 0 0 0
0 0 0 0 0 0 0 0 0 0 0 0 0 0 0 0 0 0 0 0 0 0 0 0 0 1 3 3 2 1 1 1 1 1 1 1 1 0 0 0 0 0 0
0 0 0 0 0 0 0 0 0 0 0 0 0 0 0 0 0 0 0 0 0 0 0 0 0 0 1 1 0 0 0 0 0 0 0 1 1 0 0 0 0 0 0
0 0 0 0 0 0 0 0 0 0 0 0 0 0 0 0 0 0 0 0 0 0 0 0 0 0 0 0 0 0 0 0 0 0 0 1 1 0 0 0 0 0 0
0 0 0 0 0 0 0 0 0 0 0 0 0 0 0 0 0 0 0 0 0 0 0 0 0 0 0 0 0 0 0 0 0 0 0 0 0 0 0 0 0 0 0
0 0 0 0 0 0 0 0 0 0 0 0 0 0 0 0 0 0 0 0 0 0 0 0 0 0 0 0 0 0 0 0 0 0 0 0 0 0 0 0 0 0 0
0 0 0 0 0 0 0 0 0 0 0 0 0 0 0 0 0 0 0 0 0 0 0 0 0 0 0 0 0 0 0 0 0 0 0 0 0 0 0 0 0 0 0
0 0 0 0 0 0 0 0 0 0 0 0 0 0 0 0 0 0 0 0 0 0 0 0 0 0 0 0 0 0 0 0 0 0 0 0 0 0 0 0 0 0 0
1 1 1 0 0 0 0 0 0 0 0 0 0 0 0 0 0 0 0 0 0 0 0 0 0 0 0 0 0 0 0 0 0 0 0 0 0 0 0 0 0 0 0
3 4 3 0 0 0 0 0 0 0 0 0 0 0 0 0 0 0 0 0 0 0 0 0 0 0 0 0 0 0 0 0 0 0 0 0 0 0 0 0 0 0 0
5 7 5 1 0 0 0 0 0 0 0 0 0 0 0 0 0 0 0 0 0 0 0 0 0 0 0 0 0 0 0 0 0 0 0 0 0 0 0 0 0 0 0
9 10 8 2 0 0 0 0 0 0 0 0 0 0 0 0 0 0 0 0 0 0 0 0 0 0 0 0 0 0 0 0 0 0 0 0 0 0 0 0 0 0 0
18 16 12 6 1 0 0 1 1 0 0 0 0 0 0 0 0 0 0 0 0 0 0 0 0 0 0 0 0 0 0 0 0 0 0 0 0 0 0 0 0 0 0
24 21 17 11 4 2 2 2 2 1 0 0 0 0 0 0 0 0 0 0 0 0 0 0 0 0 0 0 0 1 0 0 0 0 0 0 0 0 0 0 0 0 0
31 27 24 18 10 7 6 6 5 4 2 1 1 2 2 2 3 2 1 0 0 0 0 0 0 0 0 0 0 0 0 0 0 0 0 0 0 0 0 0 0 0 0
42 38 34 29 21 15 13 13 12 10 9 7 7 7 6 5 7 6 3 1 1 0 0 0 0 0 0 0 0 0 0 0 0 0 0 0 0 0 0 0 0 0 0
49 48 45 39 30 20 15 17 18 19 21 20 18 18 13 9 7 6 3 1 1 0 0 0 0 0 0 0 0 0 0 0 0 0 0 0 0 0 0 0 0 0 0
57 56 52 46 36 22 11 10 16 23 29 32 33 30 22 11 7 4 2 1 1 0 0 0 0 0 1 2 2 1 0 0 0 0 0 0 0 0 0 0 0 0 0
69 65 59 53 43 27 9 3 7 16 24 30 36 39 32 20 13 11 7 3 1 0 0 0 0 0 1 2 2 1 0 0 0 0 0 0 0 0 0 0 0 0 0
73 70 65 59 52 36 15 3 1 5 12 18 26 34 36 30 21 17 14 12 10 6 2 0 0 0 0 1 1 0 0 0 1 0 0 0 0 0 0 0 0 0 0
67 64 61 61 57 43 22 5 0 2 5 10 16 21 24 24 19 12 12 19 22 16 7 1 0 0 0 0 0 0 0 0 0 0 0 0 0 0 0 0 0 0 0
60 56 54 58 59 48 25 7 1 2 6 10 13 13 11 11 10 5 8 20 25 21 11 3 0 0 0 0 0 0 0 0 0 0 0 0 0 0 0 0 0 0 0
Wind_Speed
3 3 2 1 1 1 2 1 1 1 1 1 1 1 1 1 1 2 4 8 10 9 9 10 10 10 9 9 9 9 8 8 7 7 7 8 8 8 8 7 7 7 7
3 2 1 1 2 2 2 1 1 0 0 0 1 0 1 1 0 1 2 5 9 9 9 10 10 10 10 10 10 9 8 8 8 8 8 8 9 8 8 8 7 7 7
3 2 1 2 2 1 0 0 1 1 1 2 2 1 1 0 1 1 0 2 5 8 10 10 10 10 10 10 11 11 10 9 8 8 8 9 9 9 9 8 8 8 7
2 2 2 3 2 1 1 1 1 2 2 2 0 0 0 1 1 2 2 2 2 3 8 10 10 10 11 11 11 11 10 9 9 9 9 9 10 10 9 9 9 8 8
1 2 3 2 3 1 2 3 3 2 2 2 2 1 1 1 1 2 2 2 2 2 3 8 10 10 12 12 11 11 11 11 10 10 10 10 10 10 10 10 10 9 9
2 2 3 1 3 3 3 3 2 1 1 2 3 1 0 1 1 1 1 1 2 2 3 4 5 7 11 11 10 11 12 11 11 11 11 11 11 10 11 11 11 11 11
3 2 3 1 2 4 3 3 2 2 1 1 2 1 2 3 2 1 0 1 1 1 2 4 3 3 4 9 10 10 11 12 12 12 11 11 11 11 11 12 12 12 12
3 3 2 1 3 3 3 2 2 3 2 2 2 2 1 2 0 2 1 1 2 2 0 3 3 3 2 3 5 9 10 11 12 12 11 11 11 11 11 12 12 13 13
2 2 2 2 1 1 3 1 2 2 3 1 2 2 2 2 1 2 1 2 1 1 1 1 3 3 3 3 4 6 8 7 9 10 11 12 12 12 11 12 12 13 14
4 4 3 2 1 1 2 1 3 3 2 2 1 1 2 1 1 1 0 2 2 2 1 2 1 2 3 3 4 5 5 5 6 7 9 10 11 11 12 12 13 14 14
4 4 4 3 1 0 3 3 2 3 3 3 3 1 1 1 2 1 0 1 1 2 2 1 1 1 2 3 4 5 4 3 3 4 5 6 8 9 11 12 14 15 15
5 5 5 4 3 2 3 2 0 0 1 3 3 3 2 1 2 2 2 1 1 2 3 2 0 1 1 3 6 8 6 4 2 2 2 4 5 7 9 11 12 14 15
5 6 6 5 3 3 3 2 2 0 1 1 2 3 3 3 2 2 2 3 2 1 2 2 3 2 2 4 5 6 6 5 4 3 2 3 4 6 7 8 10 11 12
5 8 6 6 4 4 4 3 2 3 2 1 2 1 2 3 2 2 1 2 3 3 1 2 2 2 2 3 6 5 5 7 6 5 5 5 5 5 6 6 7 8 9
5 8 7 6 5 5 3 3 3 2 2 2 3 3 2 2 2 2 2 1 2 3 3 0 1 2 3 3 6 3 2 7 9 9 8 8 7 7 7 6 7 7 8
4 7 7 6 6 5 5 4 4 4 3 3 3 2 1 3 2 1 1 2 2 2 3 2 2 1 2 1 4 2 3 6 12 12 12 11 10 9 9 8 8 8 8
5 6 6 6 6 6 6 5 5 4 5 4 4 4 4 3 3 3 2 2 2 2 3 3 3 1 1 3 2 3 4 4 6 14 15 14 13 12 11 10 10 10 10
6 6 6 6 7 7 7 7 7 6 5 6 5 5 4 4 5 4 3 4 3 3 3 4 4 3 4 4 5 5 5 7 5 8 13 15 15 14 13 12 12 12 11
7 8 8 7 7 7 7 7 7 6 6 6 6 6 6 5 5 4 4 4 3 4 3 4 4 4 4 4 4 5 6 5 7 8 11 15 15 15 15 15 14 14 13
8 8 8 8 8 7 7 7 7 7 7 6 6 6 6 6 6 6 6 6 5 5 4 4 5 5 5 5 4 4 4 4 6 7 5 7 13 17 18 17 16 16 15
10 8 7 8 8 8 9 9 8 9 8 7 7 7 8 9 9 7 7 5 5 5 4 5 5 4 4 3 3 3 4 4 4 4 4 4 5 7 9 14 17 17 17
8 8 8 8 9 9 10 12 9 7 6 7 8 7 8 9 11 13 13 12 9 7 6 5 5 6 5 4 3 3 3 3 4 3 3 4 3 4 5 6 13 18 19
7 6 6 7 8 8 7 8 10 6 6 6 6 6 8 10 10 10 13 16 15 16 14 9 9 9 7 5 4 5 4 5 5 4 3 5 4 5 5 7 12 14 17
5 5 5 6 6 7 9 9 10 7 7 7 7 7 8 9 10 8 8 9 11 12 14 13 12 13 11 8 7 7 7 7 6 6 6 7 6 6 7 6 10 12 14
3 3 3 4 5 6 7 9 9 6 7 8 8 9 10 9 12 13 10 10 10 9 14 17 18 18 18 17 11 6 6 6 8 7 6 7 7 6 6 6 8 13 15
2 3 4 4 5 5 5 8 10 6 7 7 7 9 13 12 12 12 10 10 12 11 10 11 11 14 15 15 16 12 10 9 9 8 6 6 6 5 6 5 5 5 8
Wind_Direction
63 64 64 12 344 51 76 51 50 48 344 293 295 334 358 360 14 77 132 153 153 161 169 177 183 187 184 183 183 182 180 180 179 181 182 179 175 174 175 171 168 165 162
56 33 91 36 30 56 50 8 8 259 233 191 267 17 314 331 34 74 138 163 169 175 180 186 190 194 196 195 193 186 184 185 184 186 190 188 184 185 187 183 181 177 175
63 4 67 69 32 53 114 79 324 280 227 219 202 192 215 241 8 18 149 173 176 188 191 194 196 198 201 202 202 194 192 193 192 193 196 197 194 192 193 191 191 187 183
52 356 52 55 343 343 50 71 13 351 359 345 2 5 132 166 218 232 239 211 178 176 191 198 201 202 205 207 206 200 198 201 201 201 200 202 203 200 198 197 197 194 190
79 48 71 42 298 36 46 32 53 12 346 357 310 202 226 153 187 244 247 221 178 174 169 189 201 205 209 210 206 203 203 206 208 207 207 208 209 207 204 203 203 200 198
79 26 108 41 348 56 51 51 19 349 303 322 312 86 137 133 200 93 293 255 167 186 170 173 185 206 211 213 206 205 209 211 213 214 215 214 214 212 210 209 207 206 205
104 10 83 112 56 78 52 34 4 302 222 21 308 251 187 184 150 129 101 11 56 147 160 156 167 177 193 207 207 206 212 215 217 216 215 215 215 217 216 214 211 211 210
163 153 82 138 77 106 80 44 32 334 347 85 327 307 187 138 259 129 141 139 45 15 133 150 158 170 194 170 196 205 214 220 222 221 220 220 221 219 220 220 216 215 214
154 75 94 53 26 127 115 54 15 13 350 349 56 4 5 41 185 130 120 98 91 27 16 117 150 168 177 156 165 193 207 217 225 228 230 227 225 224 226 224 224 221 219
171 151 152 108 355 45 106 99 82 338 325 331 121 111 91 66 343 33 209 133 163 147 78 13 73 119 127 127 134 148 184 206 223 229 234 232 228 226 229 229 230 229 225
183 172 161 157 184 107 96 71 72 8 351 7 355 1 63 220 246 245 195 200 212 155 137 125 94 103 128 132 126 124 132 158 197 221 234 235 231 230 232 233 236 236 233
182 181 171 168 190 180 130 123 92 96 55 28 351 340 344 345 340 346 339 295 212 155 151 125 124 162 148 124 121 131 138 145 159 195 231 245 243 241 242 241 242 242 240
179 175 173 165 191 169 158 161 180 318 43 41 323 325 351 344 0 1 345 334 339 250 174 191 188 171 168 124 132 150 166 169 176 192 224 254 259 256 256 250 248 249 248
175 157 157 165 189 189 190 172 221 203 176 216 271 318 317 304 349 332 326 337 325 312 227 173 149 155 128 116 148 183 181 189 197 207 221 238 251 255 257 258 254 253 253
152 151 160 171 184 195 201 175 228 239 168 207 251 216 231 280 254 275 314 322 316 318 328 109 199 155 151 154 164 206 205 198 206 217 224 230 236 242 247 254 257 256 255
158 154 167 177 185 185 191 206 232 211 202 220 237 249 248 291 310 279 261 276 283 289 299 320 278 183 148 212 174 225 254 223 216 223 227 227 228 233 239 245 251 254 255
166 169 179 185 189 191 191 198 232 227 205 220 237 230 216 236 279 311 300 271 255 254 270 290 303 314 196 218 224 236 255 245 231 230 226 223 223 226 231 236 242 246 249
185 184 189 193 200 201 195 197 217 231 217 217 226 235 232 232 216 235 267 280 272 257 248 270 281 275 259 226 217 223 247 261 263 250 222 218 220 223 227 231 235 238 241
194 195 194 199 207 208 199 202 210 228 233 227 226 227 228 234 237 232 239 254 268 271 246 250 263 259 254 245 230 229 243 250 262 263 225 218 221 224 228 231 232 234 235
198 205 199 201 204 211 211 207 209 217 228 235 235 234 233 230 230 227 237 239 245 259 264 259 256 254 248 239 218 221 244 242 249 261 252 220 219 223 228 230 232 233 232
202 206 208 206 207 212 217 211 212 218 217 227 235 236 237 235 236 232 238 236 239 240 249 255 258 259 256 249 237 228 244 253 252 248 252 246 222 218 224 233 236 236 233
203 200 207 213 215 223 221 213 208 226 223 224 230 233 239 238 233 229 234 239 238 243 250 255 263 261 263 265 264 262 260 264 269 262 261 265 259 244 232 222 225 227 229
201 211 210 216 218 224 223 207 209 221 242 250 251 248 253 254 240 227 227 232 239 240 236 241 254 258 265 270 276 274 266 262 260 265 285 275 266 264 259 265 255 234 225
202 213 223 231 234 231 213 209 210 222 240 248 252 255 254 258 264 257 246 237 230 233 231 231 240 247 250 250 251 255 256 262 258 249 239 256 253 250 256 254 256 243 227
197 212 226 239 244 246 223 212 206 229 242 249 253 255 254 254 254 254 255 255 251 246 238 232 224 229 234 239 241 251 253 255 261 253 232 240 245 242 241 241 244 237 229
230 241 243 240 246 251 231 214 205 232 247 253 254 253 253 254 260 258 252 253 254 253 255 257 241 237 238 240 233 230 238 246 254 257 241 240 246 242 251 241 238 237 229